Wind_Speed
8 8 9 10 10 10 11 11 11 12 13 13 13 13 13 13 14 16 18 19 20 21 22 23 24 25 26 27 28 29 29 30 30 31 30 30 31 31 31 31 31 31 31
10 10 11 11 12 11 12 12 13 13 14 15 15 15 15 14 15 16 18 20 21 22 23 25 26 27 28 29 30 30 31 32 33 34 34 34 35 35 35 35 35 35 34
13 13 13 13 14 14 13 14 14 15 16 17 17 17 17 15 15 16 18 19 21 22 23 25 27 28 29 30 31 32 33 34 35 37 37 38 38 38 39 38 38 39 39
16 17 17 16 17 17 17 16 17 17 18 19 20 20 19 18 19 19 20 21 21 23 24 25 27 28 30 31 32 34 35 36 37 38 39 40 41 42 42 42 42 42 43
20 21 21 20 20 21 20 20 20 20 20 22 22 22 22 22 23 23 23 23 24 25 26 27 28 29 31 32 33 34 36 37 38 39 40 41 42 44 44 45 46 46 47
24 25 25 25 25 25 25 24 24 24 23 24 25 25 26 26 26 27 27 27 27 28 29 30 31 32 33 34 35 37 38 39 40 41 43 44 45 46 47 49 50 50 51
26 27 28 27 27 26 27 28 28 27 27 27 28 28 28 29 30 31 31 32 32 33 34 34 35 36 37 38 39 40 42 43 43 44 46 47 48 49 51 53 54 55 55
30 30 30 30 30 29 28 29 30 30 30 30 30 31 31 32 33 34 35 36 37 38 39 39 40 41 42 43 45 46 47 48 49 50 50 51 52 53 54 56 57 58 60
32 32 33 32 31 30 30 31 31 31 32 32 33 33 34 35 36 37 38 39 41 42 43 44 45 46 48 49 50 51 52 53 54 55 56 57 58 59 60 61 62 63 64
32 31 32 32 32 33 33 34 34 35 35 36 36 35 36 37 39 40 41 42 44 45 47 48 50 51 52 53 54 55 56 58 58 59 61 62 64 65 66 67 68 69 69
31 32 33 33 34 34 35 35 36 36 37 37 37 38 39 41 41 43 44 45 46 48 49 51 53 54 55 56 57 58 60 61 63 64 65 66 68 69 70 71 72 72 72
34 34 35 35 37 37 37 37 38 38 39 39 40 41 42 43 43 45 47 48 50 52 53 55 56 57 58 59 61 62 63 64 66 67 68 69 70 71 72 72 73 73 73
37 37 38 38 39 39 39 40 40 41 41 42 42 44 44 45 47 49 50 52 54 55 57 58 59 60 61 62 63 64 65 66 67 68 69 70 70 71 72 72 73 73 73
40 40 40 41 41 41 42 42 43 43 44 45 46 48 49 50 51 53 55 56 57 58 60 61 62 63 64 64 65 66 67 68 68 69 69 70 70 70 70 70 70 70 70
42 42 42 43 44 44 45 45 47 48 49 50 51 52 53 55 57 58 59 60 61 62 63 64 65 65 65 66 66 66 67 67 68 68 68 67 67 66 66 66 66 66 66
44 44 46 46 46 47 48 50 51 52 53 54 56 57 58 60 61 62 63 63 64 64 64 64 65 65 65 65 65 65 66 66 65 65 64 63 63 62 62 62 61 61 60
47 47 48 49 50 52 53 53 55 56 57 58 60 60 61 62 63 63 64 65 65 64 64 64 65 64 64 64 64 64 63 62 61 60 59 58 58 57 56 55 55 54 54
50 50 51 52 53 55 55 57 58 59 60 61 62 62 63 64 64 64 64 65 64 63 62 62 62 62 62 62 62 61 59 57 56 54 53 52 52 50 49 49 49 48 48
50 52 53 54 55 56 58 59 60 60 61 61 62 62 63 63 63 63 63 62 61 60 60 59 58 59 59 58 57 55 53 51 50 48 47 46 45 45 44 43 43 43 44
50 50 52 53 54 56 57 58 59 59 60 60 60 61 61 61 61 61 60 59 58 57 56 56 55 54 53 52 50 47 45 44 44 42 41 40 39 39 39 40 40 40 41
48 50 52 53 54 55 55 56 57 57 58 58 59 59 59 59 58 56 56 55 54 53 52 51 49 48 47 44 42 40 38 37 37 36 36 36 36 36 37 37 38 38 38
48 50 51 52 53 54 55 56 57 57 57 57 57 56 55 54 53 52 51 50 50 48 46 44 42 40 37 36 34 34 32 30 30 30 31 34 35 35 35 35 35 35 36
47 48 49 50 51 52 54 55 55 55 54 53 52 50 49 48 46 45 44 42 40 37 36 34 32 30 30 30 28 27 27 27 27 26 28 30 32 33 34 34 33 33 33
45 46 47 48 50 50 51 51 51 50 48 46 44 43 41 39 37 36 34 32 31 29 28 26 25 25 24 23 22 21 22 23 25 26 26 28 30 32 34 34 33 32 32
43 44 45 46 47 48 49 48 46 43 41 38 37 36 33 30 28 26 25 24 23 22 20 20 19 18 18 17 17 18 19 21 23 26 27 28 29 31 33 34 32 31 30
40 42 43 44 45 45 43 41 39 36 33 31 29 26 23 21 19 18 18 17 17 16 15 14 14 13 13 14 15 17 19 21 22 24 26 28 29 30 29 30 30 29 29
Wind_Direction
245 256 267 271 280 289 296 302 305 307 308 310 312 314 309 299 293 286 285 286 286 286 285 284 282 280 278 278 278 278 277 276 275 274 274 273 273 273 272 272 272 271 271
252 261 266 271 279 287 296 299 301 302 304 306 308 311 311 306 300 295 292 289 288 287 286 285 284 283 281 280 279 279 279 278 277 275 274 273 273 272 272 271 271 271 271
259 265 271 274 277 283 289 296 298 298 301 304 305 307 308 307 303 298 298 295 292 291 290 289 288 287 285 284 282 280 279 279 277 276 275 274 274 273 272 272 272 271 271
268 270 272 276 279 280 282 287 291 294 297 299 298 298 300 299 300 299 297 295 294 293 293 293 291 289 288 287 285 284 283 281 280 279 277 276 274 274 273 273 273 272 272
273 272 274 277 279 278 278 281 285 289 292 293 292 292 294 295 296 296 295 295 293 293 293 293 292 291 291 290 288 287 286 284 282 281 281 279 278 276 275 274 274 273 272
274 273 274 278 277 277 278 279 282 284 285 286 287 287 288 289 291 292 292 292 291 291 291 291 291 291 291 290 289 289 288 286 285 283 282 282 280 278 278 276 275 274 273
275 274 275 277 278 280 281 280 280 280 280 282 285 284 285 285 287 288 288 288 288 289 289 290 290 290 290 289 290 289 288 287 286 284 283 282 281 280 279 277 276 275 274
278 277 277 278 280 280 281 281 283 281 280 284 285 284 284 284 284 285 285 285 286 286 287 288 288 289 289 289 289 288 288 287 287 285 285 284 283 282 281 280 278 277 276
282 279 278 280 283 283 284 284 284 286 287 286 285 284 283 283 283 284 284 284 284 284 285 286 287 288 288 288 288 288 287 287 286 286 285 284 283 283 282 281 280 279 278
288 287 285 284 287 287 287 287 285 287 286 285 285 284 284 284 284 284 284 284 284 284 284 285 286 287 287 287 287 287 287 287 286 286 285 284 283 283 282 282 281 281 280
291 291 291 289 289 290 290 288 288 289 289 287 286 286 286 285 285 285 285 286 286 286 286 286 286 287 287 287 287 287 288 287 286 286 285 285 284 284 283 283 283 282 281
292 292 291 291 291 291 290 290 289 290 289 288 287 288 288 287 286 287 287 287 288 288 287 287 287 287 287 287 286 287 287 287 286 286 286 285 285 284 284 284 283 282 282
292 292 292 291 291 290 289 289 289 289 290 289 289 288 288 288 288 288 288 289 289 289 289 288 288 287 287 287 287 287 287 286 286 286 286 286 285 285 285 285 284 283 282
291 291 291 290 290 288 288 289 290 290 290 290 290 289 289 289 289 288 289 289 289 289 289 288 288 287 287 287 287 287 287 286 286 287 287 287 286 286 286 285 284 284 282
290 290 289 290 289 288 289 289 290 290 291 291 290 290 289 289 289 289 289 289 289 289 288 288 288 287 286 286 287 287 287 287 288 288 288 288 288 287 286 286 285 283 282
287 287 288 289 289 289 290 291 291 292 291 291 291 290 289 289 289 289 288 288 288 288 288 287 286 286 286 287 287 287 288 289 289 289 289 289 288 288 287 286 285 284 283
286 287 288 289 290 290 291 290 290 290 291 291 290 290 289 289 289 288 287 287 287 287 287 287 286 286 286 287 288 289 290 290 291 291 291 290 290 289 288 287 287 286 285
285 287 288 289 290 290 289 289 290 290 291 290 289 289 288 288 288 287 287 287 286 287 287 287 287 287 288 288 290 291 292 292 292 292 292 292 292 291 291 290 289 288 287
284 285 288 288 288 288 289 290 290 290 290 289 288 288 287 288 288 288 288 288 288 288 289 289 289 289 289 290 291 292 293 293 293 293 294 294 294 294 294 293 293 291 290
284 285 287 287 288 289 289 289 289 289 289 289 289 288 288 288 288 288 288 288 288 289 290 290 291 291 291 292 293 293 294 295 295 295 297 297 297 298 297 297 296 295 293
285 286 288 289 289 290 291 291 291 290 289 289 289 289 288 288 288 288 288 288 289 290 291 292 292 293 293 294 294 295 295 296 296 299 301 301 302 302 302 302 301 299 297
289 289 290 291 291 291 292 292 292 292 291 290 290 290 289 289 289 289 289 289 290 290 291 293 294 294 295 296 297 297 297 297 299 302 304 305 307 307 307 307 305 302 299
291 291 292 293 294 294 293 293 293 292 292 291 291 291 291 291 291 292 291 292 292 293 293 294 294 295 297 298 299 299 301 303 305 307 308 308 310 311 312 311 309 306 303
293 295 296 296 296 296 296 295 295 294 294 293 293 293 293 294 295 296 296 296 295 295 296 296 297 298 301 302 301 303 306 309 310 313 315 315 315 315 315 314 313 311 308
297 298 298 299 299 299 299 298 297 297 296 296 296 297 298 299 300 300 299 300 301 302 303 303 303 306 308 308 309 312 315 317 318 320 322 321 321 320 319 318 317 315 313
300 301 301 302 302 302 301 300 300 299 299 300 301 302 303 304 306 307 308 311 312 312 313 314 317 318 318 319 321 322 323 324 325 325 325 325 325 324 323 321 321 320 318
Height
5889 5889 5888 5887 5886 5885 5883 5882 5880 5879 5878 5877 5876 5874 5873 5872 5870 5869 5868 5867 5866 5866 5865 5865 5864 5864 5863 5863 5862 5862 5861 5860 5860 5860 5859 5859 5859 5858 5858 5858 5858 5858 5858
5887 5887 5886 5885 5883 5882 5881 5879 5878 5877 5875 5874 5873 5871 5870 5868 5867 5866 5865 5864 5862 5861 5861 5860 5859 5859 5858 5857 5857 5856 5855 5855 5854 5853 5853 5852 5852 5851 5851 5851 5851 5851 5851
5884 5884 5883 5881 5880 5879 5878 5876 5875 5874 5872 5871 5869 5868 5866 5865 5864 5862 5861 5860 5858 5857 5856 5855 5854 5853 5852 5851 5850 5849 5848 5847 5847 5846 5845 5844 5844 5843 5843 5842 5842 5842 5842
5881 5880 5879 5878 5876 5875 5874 5873 5871 5870 5868 5867 5865 5864 5863 5861 5860 5858 5857 5856 5854 5853 5851 5850 5849 5847 5846 5844 5843 5842 5841 5839 5838 5837 5837 5836 5835 5834 5834 5833 5833 5832 5832
5876 5875 5874 5872 5871 5870 5869 5868 5867 5865 5864 5863 5861 5860 5858 5857 5855 5853 5852 5850 5849 5848 5846 5844 5842 5841 5839 5837 5836 5834 5833 5831 5830 5829 5827 5826 5825 5825 5824 5823 5822 5822 5822
5869 5868 5867 5866 5865 5864 5863 5862 5861 5860 5859 5857 5856 5854 5853 5851 5850 5848 5846 5845 5843 5841 5839 5837 5836 5834 5832 5830 5828 5826 5824 5823 5821 5819 5818 5816 5815 5814 5813 5812 5810 5810 5809
5862 5861 5860 5860 5858 5857 5856 5855 5855 5854 5853 5851 5849 5848 5846 5845 5843 5841 5839 5838 5835 5833 5832 5829 5827 5826 5824 5821 5819 5817 5815 5813 5811 5809 5807 5805 5804 5802 5801 5799 5798 5797 5796
5855 5854 5853 5852 5851 5850 5849 5848 5847 5846 5845 5844 5842 5840 5839 5838 5835 5834 5832 5830 5827 5825 5823 5820 5818 5816 5814 5812 5809 5807 5804 5802 5800 5797 5795 5793 5791 5789 5787 5786 5784 5782 5781
5848 5846 5845 5844 5843 5843 5842 5841 5840 5839 5837 5836 5835 5833 5831 5829 5827 5825 5823 5821 5818 5816 5813 5811 5808 5806 5803 5801 5798 5795 5793 5790 5787 5785 5782 5780 5777 5775 5772 5770 5768 5766 5764
5840 5839 5837 5836 5836 5835 5835 5833 5832 5831 5829 5827 5825 5824 5822 5820 5817 5815 5813 5811 5808 5806 5803 5800 5797 5794 5792 5789 5785 5782 5779 5776 5773 5770 5767 5764 5761 5758 5755 5753 5750 5748 5746
5833 5832 5831 5829 5828 5828 5827 5825 5824 5822 5820 5818 5816 5814 5812 5810 5807 5805 5802 5800 5797 5794 5791 5788 5785 5782 5778 5775 5772 5768 5765 5761 5758 5754 5751 5747 5744 5740 5737 5734 5731 5728 5726
5825 5824 5823 5821 5820 5819 5818 5816 5815 5813 5810 5808 5806 5804 5802 5799 5796 5794 5790 5787 5784 5781 5778 5775 5771 5768 5764 5761 5757 5754 5750 5746 5742 5738 5734 5729 5726 5722 5718 5714 5711 5708 5705
5818 5816 5815 5813 5811 5810 5808 5807 5805 5803 5801 5798 5796 5793 5790 5788 5785 5782 5778 5775 5771 5768 5764 5760 5756 5753 5749 5745 5741 5737 5733 5729 5724 5720 5715 5711 5707 5702 5698 5694 5690 5687 5683
5809 5808 5806 5804 5802 5800 5798 5796 5794 5792 5789 5787 5784 5781 5778 5775 5771 5768 5765 5761 5757 5753 5749 5745 5741 5736 5733 5729 5724 5720 5715 5711 5706 5701 5697 5692 5688 5683 5679 5674 5670 5666 5662
5799 5798 5796 5794 5792 5790 5787 5785 5783 5780 5777 5774 5771 5768 5764 5761 5757 5753 5750 5746 5742 5738 5734 5728 5723 5719 5715 5711 5707 5702 5698 5693 5688 5683 5678 5673 5669 5664 5659 5655 5650 5646 5642
5789 5787 5785 5783 5780 5778 5776 5773 5770 5767 5764 5760 5757 5753 5749 5745 5741 5737 5733 5729 5725 5721 5717 5712 5706 5701 5696 5692 5688 5684 5679 5674 5669 5665 5660 5655 5650 5645 5640 5635 5631 5626 5622
5778 5776 5773 5771 5768 5766 5762 5759 5756 5753 5749 5745 5741 5737 5733 5729 5724 5720 5716 5712 5708 5704 5700 5695 5689 5683 5679 5674 5671 5666 5661 5657 5652 5647 5643 5638 5632 5627 5622 5617 5613 5608 5604
5766 5764 5761 5758 5755 5752 5749 5745 5742 5738 5734 5729 5725 5721 5716 5712 5707 5703 5698 5694 5690 5686 5682 5678 5672 5666 5661 5657 5654 5650 5645 5640 5636 5631 5626 5621 5616 5611 5606 5601 5597 5593 5588
5754 5751 5748 5745 5742 5738 5735 5731 5726 5722 5718 5713 5708 5704 5699 5694 5690 5685 5681 5677 5672 5668 5664 5660 5655 5650 5645 5641 5638 5634 5629 5625 5620 5616 5612 5607 5602 5597 5592 5587 5583 5578 5574
5742 5739 5735 5732 5728 5724 5720 5716 5711 5706 5702 5697 5692 5687 5682 5677 5673 5668 5664 5660 5656 5651 5647 5644 5640 5635 5631 5627 5624 5621 5617 5612 5607 5603 5599 5594 5590 5585 5580 5575 5571 5566 5560
5729 5726 5722 5718 5714 5710 5706 5701 5696 5691 5686 5681 5675 5671 5666 5661 5656 5652 5648 5644 5641 5637 5633 5629 5626 5622 5618 5615 5612 5609 5606 5602 5597 5593 5589 5583 5579 5575 5569 5564 5559 5553 5548
5717 5713 5709 5705 5700 5696 5691 5686 5681 5675 5670 5665 5660 5655 5650 5645 5641 5636 5633 5629 5626 5624 5620 5617 5614 5611 5607 5604 5602 5599 5596 5593 5590 5586 5581 5575 5569 5564 5559 5554 5548 5542 5537
5705 5700 5696 5692 5687 5682 5676 5671 5666 5661 5655 5650 5645 5640 5635 5631 5626 5622 5619 5616 5614 5612 5609 5607 5605 5602 5599 5597 5594 5591 5588 5585 5582 5579 5574 5568 5562 5556 5550 5544 5538 5532 5526
5692 5688 5683 5679 5674 5668 5663 5657 5651 5646 5641 5636 5632 5627 5623 5619 5616 5612 5609 5607 5605 5603 5601 5599 5598 5595 5593 5590 5588 5586 5583 5579 5575 5571 5567 5561 5555 5548 5541 5535 5529 5523 5517
5682 5677 5672 5666 5661 5655 5649 5644 5638 5633 5629 5625 5621 5617 5614 5610 5607 5604 5602 5600 5598 5596 5595 5593 5592 5590 5588 5586 5583 5581 5578 5574 5570 5565 5560 5554 5549 5542 5534 5527 5521 5515 5509
5671 5666 5661 5655 5649 5643 5637 5632 5627 5622 5619 5615 5612 5609 5607 5604 5601 5599 5597 5595 5593 5592 5591 5589 5588 5586 5584 5582 5580 5577 5573 5569 5565 5560 5555 5549 5543 5536 5530 5522 5514 5508 5502